This is the latest recevied weather packets stored in our database for station/object JA3VQW-13. If no packets are shown the sender has not sent any weather packets the latest 10 day(s).
| Time | Temp. | Humidity | Pressure | Rain* | Wind** | Luminosity | Snow |
|---|---|---|---|---|---|---|---|
| 1778032591 | 18.33° C | 41% | 1012 hPa | 0 mm | - | - | - |
| 1778031691 | 18.33° C | 37% | 1012 hPa | 0 mm | - | - | - |
| 1778031377 | 18.33° C | 38% | 1012 hPa | 0 mm | - | - | - |
| 1778030792 | 18.89° C | 36% | 1012 hPa | 0 mm | - | - | - |
| 1778029890 | 18.89° C | 36% | 1012 hPa | 0 mm | - | - | - |
| 1778029577 | 18.89° C | 36% | 1011 hPa | 0 mm | - | - | - |
| 1778028990 | 18.89° C | 35% | 1011 hPa | 0 mm | - | - | - |
| 1778028090 | 19.44° C | 38% | 1012 hPa | 0 mm | - | - | - |
| 1778027777 | 19.44° C | 40% | 1012 hPa | 0 mm | - | - | - |
| 1778027191 | 18.89° C | 41% | 1012 hPa | 0 mm | - | - | - |
| 1778026292 | 18.89° C | 43% | 1012 hPa | 0 mm | - | - | - |
| 1778025977 | 18.89° C | 44% | 1012 hPa | 0 mm | - | - | - |
| 1778025391 | 18.33° C | 45% | 1012 hPa | 0 mm | - | - | - |
| 1778024491 | 17.78° C | 47% | 1011 hPa | 0 mm | - | - | - |
| 1778024177 | 17.78° C | 47% | 1011 hPa | 0 mm | - | - | - |
| 1778023590 | 17.22° C | 46% | 1011 hPa | 0 mm | - | - | - |
| 1778022690 | 17.22° C | 47% | 1011 hPa | 0 mm | - | - | - |
| 1778022377 | 17.22° C | 47% | 1011 hPa | 0 mm | - | - | - |
| 1778021791 | 17.22° C | 47% | 1011 hPa | 0 mm | - | - | - |
| 1778020891 | 16.67° C | 48% | 1012 hPa | 0 mm | - | - | - |
| 1778020577 | 16.67° C | 48% | 1012 hPa | 0 mm | - | - | - |
| 1778019991 | 16.67° C | 49% | 1012 hPa | 0 mm | - | - | - |
| 1778019091 | 16.11° C | 50% | 1012 hPa | 0 mm | - | - | - |
| 1778018776 | 16.11° C | 51% | 1012 hPa | 0 mm | - | - | - |
| 1778018190 | 15.56° C | 52% | 1012 hPa | 0 mm | - | - | - |
* Rain latest hour (hover to see other rain measurements)
** Current wind speed in m/s (hover to see current wind gust speed)